User: anonymous   Login
Location: Cherry Springs State Park
(41.6616°N, 77.8240°W)
Time: 04:46:30
(UTC-04:00)
Language:

Cosmos 1437 - Orbit

View from above orbital plane
View from above orbital plane
View from above satellite
View from above satellite

Ground track
Ground track

The orbit data is extracted from the following two-line orbital elements,

1 13770U 83003A   15142.11306723  .00010235  00000-0  25967-3 0  9991
2 13770 081.1619 350.5277 0009181 035.4783 093.2835 15.39500460769559
Epoch (UTC): 22 May 2015 02:42:49
Eccentricity: 0.0009181
inclination: 81.1619°
perigee height: 441 km
apogee height: 454 km
right ascension of ascending node: 350.5277°
argument of perigee: 35.4783°
revolutions per day: 15.39500460
mean anomaly at epoch: 93.2835°
orbit number at epoch: 76955

The dashed part of the orbit path shows where the satellite is in the earth's shadow,  

DLR